User: anonymous   Login
Location: Artiguedieu
(43.5000°N, 0.5454°E)
Time: 15:53:17
(UTC+00:00)
Language:

KAITUO 1B - Orbit

View from above orbital plane
View from above orbital plane
View from above satellite
View from above satellite

Ground track
Ground track

The orbit data is extracted from the following two-line orbital elements,

1 40912U 15049P   21268.25198093  .00002339  00000-0  10523-3 0  9992
2 40912  97.4452 276.8266 0014931 146.6161 269.6506 15.22012321333371
Epoch (UTC): 25 September 2021 06:02:51
Eccentricity: 0.0014931
inclination: 97.4452°
perigee height: 489 km
apogee height: 510 km
right ascension of ascending node: 276.8266°
argument of perigee: 146.6161°
revolutions per day: 15.22012321
mean anomaly at epoch: 269.6506°
orbit number at epoch: 33337

The dashed part of the orbit path shows where the satellite is in the earth's shadow,  

DLR